Preview of NWS' New Version of Forecast
This preview is not operational and should not be used for support decisions.

Regional Weather Roundup (RWR)

Issued by National Weather Service (NWS)

                            
000
ASUS43 KTOP 211059
RWRKS 

WEATHER ROUNDUP FOR KANSAS
NATIONAL WEATHER SERVICE GOODLAND KS
600 AM CDT WED AUG 21 2019

NOTE:  "FAIR" INDICATES FEW OR NO CLOUDS BELOW 12,000 FEET WITH NO
SIGNIFICANT WEATHER AND/OR OBSTRUCTIONS TO VISIBILITY.

KSZ001>006-013>018-027>032-041>047-211200-
NORTHWEST KANSAS
  
CITY           SKY/WX    TMP DP  RH WIND       PRES   REMARKS
GOODLAND       MOCLDY    65  58  78 NE10G23   30.12R                  
HAYS           LGT RAIN  76  62  62 SW10      29.81R                  
HILL CITY      MOCLDY    76  68  76 NE7G21    30.04R                  
RUSSELL        PTCLDY    80  59  48 SW20G29   29.94F                  
$$

KSZ061>065-074>080-084>089-211200-
SOUTHWEST KANSAS
  
CITY           SKY/WX    TMP DP  RH WIND       PRES   REMARKS
DODGE CITY     CLEAR     77  62  59 SE16      30.04F                  
GARDEN CITY    CLEAR     71  63  75 SE15      30.02R                  
GREAT BEND     LGT RAIN  79  60  52 S13       30.02R                  
LIBERAL        PTCLDY    76  62  62 S10       30.03S                  
$$

KSZ066>073-081>083-090>101-211200-
SOUTHEAST KANSAS
  
CITY           SKY/WX    TMP DP  RH WIND       PRES   REMARKS
CHANUTE        CLEAR     79  73  82 S8        29.98R                  
COFFEYVILLE    CLEAR     76  73  91 SE3       29.97R                  
HUTCHINSON     CLEAR     81  64  56 SW14      29.99R                  
MEDICINE LODGE   N/A     80  61  52 CALM      29.99R                  
NEWTON           N/A     77  71  82 SW10      29.99R                  
PARSONS        CLEAR     77  75  93 S5        29.98R                  
WICHITA INTL   MOCLDY    76  70  82 W5        29.99R                  
WICHITA JABRA  CLEAR     80  69  69 SW10      29.98R                  
WICHITA MCCONL PTCLDY    77  67  70 S9        29.99R                  
WINFIELD       CLEAR     73  70  90 S5        29.99R                  
$$

KSZ007>012-019>026-033>040-048>060-102>105-211200-
NORTHEAST KANSAS
  
CITY           SKY/WX    TMP DP  RH WIND       PRES   REMARKS
CONCORDIA      PTCLDY    71  68  90 E10       30.01S                  
EMPORIA        PTCLDY    76  73  91 NW6       29.99R                  
LAWRENCE       LGT RAIN  74  69  85 N14G33    30.01R                  
MANHATTAN      PTCLDY    71  67  87 NE17G29   30.02R                  
OLATHE IND     MOCLDY    79  74  84 NW13G25   30.01R                  
OLATHE EXE     MOCLDY    78  75  90 N13       30.00R                  
SALINA         MOCLDY    77  70  79 N7        30.00R                  
TOPEKA BILLARD CLOUDY    72  64  76 N25G35    30.02R                  
TOPEKA FORBES  LGT RAIN  72  65  78 N12G32    30.03R                  
$$